Вернуться в каталог

IRIDIUM 33 DEB

АктивенPO
NORAD 34765·DEBRIS·🇺🇸 United States

Запущен Sep 14, 1997 с Baikonur Cosmodrome

Loading…

Ближайшие Пролёты (ближайшие 24 часа)

TLE

СвежийSource: Space-Track

Эпоха: Sep 14, 2026, 11:59 UTC

1 34765U 97051LJ  26257.49979128  .00000716  00000-0  21590-3 0  9992
2 34765  86.3330 274.3703 0017450  36.9169 115.6710 14.41099063915842

Отслеживайте IRIDIUM 33 DEB в реальном времени с AllMySat

Download on the App Store